Total_Precipitation_Accumulation
0.01 0.00 0.01 0.02 0.05 0.06 0.05 0.06 0.09 0.11 0.11 0.10 0.10 0.10 0.11 0.10 0.08 0.07 0.06 0.08 0.12 0.18 0.20 0.20 0.16 0.11 0.09 0.07 0.04 0.03 0.02 0.03 0.06 0.09 0.12 0.14 0.15 0.14 0.14 0.15 0.18 0.20 0.10
0.01 0.00 0.01 0.01 0.03 0.05 0.05 0.07 0.09 0.10 0.11 0.12 0.13 0.14 0.14 0.10 0.07 0.07 0.07 0.09 0.14 0.18 0.18 0.17 0.13 0.09 0.08 0.04 0.02 0.02 0.02 0.04 0.09 0.13 0.16 0.19 0.23 0.19 0.18 0.18 0.22 0.27 0.18
0.01 0.00 0.01 0.01 0.01 0.04 0.05 0.07 0.08 0.08 0.09 0.11 0.11 0.12 0.10 0.08 0.07 0.06 0.06 0.09 0.12 0.14 0.12 0.08 0.04 0.03 0.03 0.02 0.01 0.02 0.03 0.06 0.11 0.18 0.36 0.31 0.27 0.20 0.19 0.18 0.16 0.14 0.17
0.01 0.00 0.00 0.01 0.02 0.03 0.03 0.05 0.09 0.09 0.09 0.09 0.09 0.09 0.08 0.07 0.07 0.06 0.07 0.09 0.10 0.09 0.06 0.03 0.02 0.01 0.01 0.01 0.01 0.02 0.03 0.07 0.14 0.30 0.54 0.44 0.34 0.25 0.22 0.21 0.17 0.14 0.15
0.01 0.00 0.01 0.01 0.02 0.04 0.04 0.03 0.07 0.10 0.10 0.09 0.09 0.09 0.10 0.09 0.08 0.07 0.08 0.09 0.09 0.08 0.08 0.07 0.05 0.01 0.01 0.01 0.01 0.03 0.05 0.10 0.19 0.41 0.75 0.71 0.52 0.39 0.28 0.26 0.27 0.22 0.19
0.01 0.00 0.01 0.02 0.03 0.06 0.06 0.04 0.06 0.08 0.10 0.11 0.12 0.12 0.11 0.11 0.09 0.07 0.08 0.08 0.08 0.09 0.11 0.13 0.08 0.02 0.01 0.01 0.02 0.05 0.08 0.12 0.25 0.50 0.91 0.98 0.61 0.37 0.30 0.30 0.30 0.26 0.21
0.02 0.01 0.01 0.03 0.04 0.06 0.07 0.08 0.08 0.07 0.09 0.13 0.14 0.11 0.10 0.10 0.09 0.09 0.08 0.07 0.09 0.12 0.14 0.11 0.05 0.02 0.01 0.01 0.03 0.06 0.10 0.16 0.30 0.70 1.00 0.88 0.68 0.39 0.30 0.30 0.31 0.26 0.20
0.05 0.03 0.02 0.04 0.05 0.07 0.10 0.10 0.13 0.12 0.12 0.14 0.14 0.11 0.10 0.08 0.08 0.10 0.09 0.09 0.12 0.16 0.15 0.06 0.01 0.00 0.00 0.01 0.02 0.05 0.11 0.14 0.25 0.65 0.97 0.68 0.50 0.31 0.25 0.25 0.25 0.22 0.18
0.05 0.03 0.02 0.03 0.04 0.06 0.11 0.11 0.13 0.15 0.14 0.13 0.12 0.12 0.12 0.13 0.13 0.13 0.12 0.11 0.14 0.15 0.10 0.03 0.01 0.00 0.01 0.01 0.02 0.04 0.07 0.11 0.23 0.41 0.47 0.37 0.33 0.21 0.14 0.12 0.10 0.09 0.08
0.05 0.03 0.02 0.02 0.03 0.03 0.02 0.06 0.09 0.12 0.15 0.12 0.09 0.11 0.12 0.12 0.11 0.10 0.09 0.10 0.10 0.10 0.07 0.03 0.02 0.01 0.01 0.01 0.01 0.02 0.05 0.08 0.16 0.30 0.40 0.27 0.18 0.12 0.10 0.07 0.05 0.03 0.02
0.08 0.06 0.02 0.02 0.05 0.05 0.02 0.02 0.05 0.08 0.10 0.06 0.05 0.06 0.07 0.16 0.20 0.17 0.10 0.09 0.08 0.07 0.06 0.04 0.03 0.01 0.01 0.00 0.01 0.01 0.02 0.05 0.16 0.33 0.42 0.29 0.16 0.11 0.07 0.04 0.03 0.02 0.01
0.09 0.06 0.05 0.04 0.03 0.07 0.03 0.02 0.02 0.02 0.02 0.03 0.09 0.06 0.12 0.27 0.33 0.24 0.19 0.11 0.08 0.08 0.06 0.05 0.03 0.02 0.01 0.00 0.01 0.01 0.01 0.05 0.17 0.33 0.30 0.20 0.15 0.11 0.08 0.04 0.02 0.01 0.01
0.11 0.04 0.04 0.07 0.06 0.15 0.05 0.03 0.04 0.05 0.10 0.11 0.18 0.17 0.22 0.27 0.24 0.27 0.31 0.18 0.13 0.10 0.10 0.08 0.04 0.03 0.02 0.02 0.02 0.02 0.03 0.05 0.10 0.18 0.18 0.16 0.15 0.13 0.09 0.06 0.04 0.02 0.02
0.12 0.05 0.04 0.05 0.05 0.05 0.05 0.06 0.06 0.05 0.08 0.12 0.18 0.14 0.24 0.30 0.31 0.32 0.35 0.28 0.25 0.23 0.20 0.13 0.08 0.07 0.05 0.04 0.04 0.04 0.04 0.04 0.07 0.09 0.13 0.17 0.19 0.19 0.15 0.10 0.06 0.05 0.04
0.14 0.07 0.04 0.04 0.04 0.04 0.09 0.07 0.05 0.05 0.06 0.09 0.14 0.15 0.17 0.23 0.28 0.33 0.31 0.30 0.28 0.29 0.26 0.15 0.13 0.14 0.09 0.09 0.07 0.07 0.08 0.07 0.07 0.09 0.14 0.21 0.22 0.23 0.23 0.17 0.12 0.10 0.08
0.19 0.11 0.06 0.03 0.03 0.04 0.07 0.06 0.05 0.05 0.08 0.10 0.13 0.16 0.16 0.24 0.35 0.38 0.36 0.39 0.39 0.39 0.42 0.32 0.27 0.27 0.18 0.15 0.14 0.15 0.15 0.13 0.14 0.14 0.18 0.22 0.25 0.27 0.32 0.30 0.23 0.19 0.16
0.27 0.18 0.12 0.06 0.04 0.05 0.07 0.08 0.07 0.06 0.08 0.11 0.17 0.22 0.19 0.23 0.38 0.41 0.46 0.49 0.50 0.47 0.48 0.44 0.43 0.43 0.38 0.32 0.29 0.25 0.22 0.23 0.24 0.24 0.28 0.31 0.30 0.32 0.33 0.32 0.30 0.26 0.22
0.29 0.26 0.18 0.09 0.08 0.09 0.09 0.10 0.10 0.12 0.15 0.17 0.19 0.25 0.25 0.30 0.37 0.45 0.50 0.57 0.59 0.56 0.59 0.60 0.60 0.55 0.49 0.44 0.43 0.40 0.36 0.32 0.31 0.34 0.40 0.46 0.46 0.41 0.37 0.35 0.33 0.31 0.29
0.29 0.32 0.28 0.20 0.19 0.19 0.19 0.20 0.20 0.17 0.20 0.28 0.32 0.35 0.44 0.53 0.54 0.61 0.66 0.76 0.76 0.81 0.81 0.79 0.78 0.68 0.65 0.63 0.57 0.50 0.41 0.39 0.40 0.38 0.42 0.43 0.42 0.40 0.39 0.38 0.35 0.32 0.31
0.40 0.43 0.40 0.39 0.40 0.38 0.38 0.39 0.41 0.41 0.44 0.51 0.60 0.66 0.71 0.82 0.93 1.04 1.10 1.13 1.09 1.08 1.03 1.00 0.95 0.86 0.75 0.71 0.57 0.49 0.45 0.44 0.44 0.43 0.39 0.35 0.33 0.31 0.31 0.30 0.27 0.27 0.32
0.71 0.71 0.65 0.58 0.61 0.68 0.77 0.83 0.94 1.06 1.12 1.14 1.21 1.32 1.50 1.64 1.71 1.73 1.74 1.64 1.50 1.38 1.28 1.17 1.01 0.89 0.80 0.72 0.65 0.54 0.42 0.35 0.33 0.32 0.31 0.32 0.33 0.32 0.29 0.29 0.26 0.24 0.27
0.97 0.97 0.98 0.98 1.09 1.27 1.50 1.67 1.81 1.96 2.06 2.09 2.11 2.23 2.34 2.47 2.54 2.54 2.46 2.33 2.18 1.89 1.50 1.22 1.05 0.96 0.86 0.79 0.75 0.68 0.50 0.33 0.24 0.21 0.22 0.25 0.27 0.29 0.29 0.27 0.24 0.23 0.24
1.25 1.29 1.35 1.46 1.72 2.06 2.33 2.57 2.72 2.91 3.04 2.97 2.83 2.87 2.96 3.02 3.03 3.06 2.97 2.70 2.30 1.83 1.44 1.22 1.14 1.04 0.92 0.82 0.74 0.71 0.61 0.48 0.31 0.20 0.16 0.16 0.17 0.18 0.19 0.21 0.21 0.22 0.23
1.38 1.47 1.57 1.77 2.12 2.49 2.80 3.18 3.43 3.52 3.63 3.77 3.67 3.52 3.34 3.15 3.05 2.91 2.70 2.28 1.85 1.52 1.31 1.21 1.10 0.94 0.84 0.70 0.62 0.54 0.48 0.41 0.35 0.24 0.17 0.13 0.11 0.10 0.12 0.13 0.14 0.15 0.16
1.39 1.40 1.48 1.80 2.28 2.87 3.45 3.81 4.00 4.10 4.09 4.02 3.80 3.53 3.23 2.91 2.53 2.21 1.91 1.60 1.40 1.22 1.04 0.89 0.78 0.66 0.56 0.46 0.39 0.35 0.31 0.26 0.24 0.22 0.19 0.14 0.13 0.12 0.12 0.13 0.14 0.14 0.14
1.14 1.33 1.54 1.85 2.45 3.10 3.56 3.88 4.09 4.13 3.93 3.68 3.33 2.92 2.66 2.39 2.02 1.67 1.43 1.21 1.03 0.86 0.67 0.53 0.43 0.37 0.33 0.31 0.27 0.24 0.21 0.20 0.20 0.21 0.22 0.19 0.16 0.16 0.15 0.15 0.16 0.17 0.18